Weather History for San Antonio, TX

Change the Weather History Date:

Saturday, November 2, 2013

  Actual Average Record
Temperature  
Mean Temperature 65 °F 66 °F  
Max Temperature 76 °F 77 °F 88 °F (1936)
Min Temperature 53 °F 55 °F 31 °F (1966)
Degree Days  
Heating Degree Days 0 3  
Month to date heating degree days 0 6  
Since 1 July heating degree days 11 39  
Cooling Degree Days 0 4  
Month to date cooling degree days 4 8  
Year to date cooling degree days 3437 3063  
Growing Degree Days 14 (Base 50)    
Moisture  
Dew Point 38 °F    
Average Humidity 44    
Maximum Humidity 66    
Minimum Humidity 21    
Precipitation  
Precipitation 0.00 in 0.09 in 3.39 in (2000)
Month to date precipitation 0.00 0.19  
Year to date precipitation 29.95 28.27  
Snow  
Snow 0.00 in - - ()
Month to date snowfall 0.0  
Since 1 July snowfall 0.0  
Since 1 September snowfall 0.0  
Snow Depth 0.00 in    
Sea Level Pressure  
Sea Level Pressure 30.18 in    
Wind  
Wind Speed 7 mph (North)    
Max Wind Speed 21 mph    
Max Gust Speed 28 mph    
Visibility 10 miles    
Events      
T = Trace of Precipitation, MM = Missing Value Source: NWS Daily Summary

Daily Weather History Graph

Daily Weather History Graph

Search for Another Location

Airport:

Trip Planner

Search our weather history database for the weather conditions in past years. The results will help you decide how hot, cold, wet, or windy it might be!

Date:

Astronomy

Nov. 02, 2013 Rise Set
Actual Time 7:48 AM CDT 6:46 PM CDT
Civil Twilight 7:23 AM CDT 7:11 PM CDT
Nautical Twilight 6:55 AM CDT 7:39 PM CDT
Astronomical Twilight 6:27 AM CDT 8:07 PM CDT
Moon 6:50 AM CDT (11/2) 6:17 PM CDT (11/2)
Length of Visible Light 11h 47m
Length of Day
10h 58m
Waning Crescent, 1% of the Moon is Illuminated
Nov 2
Waning Crescent
Nov 3
New
Nov 9
First Quarter
Nov 17
Full
Nov 25
Last Quarter

Hourly Weather History & Observations

Time (CDT) Temp. Dew Point Humidity Pressure Visibility Wind Dir Wind Speed Gust Speed Precip Events Conditions
12:51 AM 68.0 °F 42.1 °F 39% 30.05 in 10.0 mi North 12.7 mph - N/A   Clear
1:51 AM 66.9 °F 43.0 °F 42% 30.06 in 10.0 mi North 15.0 mph 27.6 mph N/A   Clear
2:51 AM 63.0 °F 43.0 °F 48% 30.09 in 10.0 mi NNW 10.4 mph - N/A   Clear
3:51 AM 62.1 °F 42.1 °F 48% 30.11 in 10.0 mi North 6.9 mph - N/A   Clear
4:51 AM 62.1 °F 41.0 °F 46% 30.14 in 10.0 mi North 9.2 mph - N/A   Clear
5:51 AM 59.0 °F 41.0 °F 51% 30.17 in 10.0 mi Calm Calm - N/A   Clear
6:51 AM 54.0 °F 42.1 °F 64% 30.19 in 10.0 mi NW 4.6 mph - N/A   Clear
7:51 AM 53.1 °F 41.0 °F 64% 30.22 in 10.0 mi NNW 4.6 mph - N/A   Clear
8:51 AM 57.9 °F 42.1 °F 56% 30.24 in 10.0 mi NNW 8.1 mph - N/A   Clear
9:51 AM 66.0 °F 39.0 °F 37% 30.27 in 10.0 mi North 11.5 mph - N/A   Clear
10:51 AM 70.0 °F 37.9 °F 31% 30.27 in 10.0 mi North 8.1 mph - N/A   Clear
11:51 AM 73.0 °F 35.1 °F 25% 30.27 in 10.0 mi NNE 13.8 mph - N/A   Clear
12:51 PM 75.0 °F 33.1 °F 22% 30.24 in 10.0 mi North 15.0 mph 20.7 mph N/A   Clear
1:51 PM 75.9 °F 33.1 °F 21% 30.22 in 10.0 mi NNE 11.5 mph 20.7 mph N/A   Clear
2:51 PM 75.9 °F 32.0 °F 20% 30.18 in 10.0 mi NNE 15.0 mph 21.9 mph N/A   Clear
3:51 PM 75.0 °F 32.0 °F 21% 30.16 in 10.0 mi NNE 12.7 mph - N/A   Clear
4:51 PM 75.0 °F 33.1 °F 22% 30.15 in 10.0 mi North 13.8 mph - N/A   Clear
5:51 PM 73.0 °F 35.1 °F 25% 30.16 in 10.0 mi NNE 5.8 mph - N/A   Clear
6:51 PM 69.1 °F 35.1 °F 29% 30.17 in 10.0 mi NNE 3.5 mph - N/A   Clear
7:51 PM 63.0 °F 37.0 °F 38% 30.18 in 10.0 mi NE 3.5 mph - N/A   Clear
8:51 PM 57.9 °F 39.9 °F 51% 30.19 in 10.0 mi Calm Calm - N/A   Clear
9:51 PM 60.1 °F 39.0 °F 46% 30.21 in 10.0 mi Calm Calm - N/A   Clear
10:51 PM 55.9 °F 44.1 °F 64% 30.21 in 10.0 mi North 3.5 mph - N/A   Clear
11:51 PM 55.9 °F 39.0 °F 53% 30.20 in 10.0 mi Calm Calm - N/A   Clear